World > North America > United States > Florida   City of Naples, FL

Naples, Florida Regional Weather

Lat: 26.14N, Lon: 81.8W
Wx Zone: FLZ069
Warning NWS WEATHER ALERT - (More Info. Click Here) Warning
Feedback

Naples, FL Regional Weather

Expires:201910160600;;778544
ASUS42 KTBW 160519
RWRFL 
FLORIDA REGIONAL WEATHER ROUNDUP
NATIONAL WEATHER SERVICE TAMPA BAY RUSKIN FL
100 AM EDT WED OCT 16 2019

NOTE: "FAIR" INDICATES FEW OR NO CLOUDS BELOW 12,000 FEET WITH NO
SIGNIFICANT WEATHER AND/OR OBSTRUCTIONS TO VISIBILITY.


FLZ066-069-070-075>078-162-262-165-265-160600-
SOUTHWEST FLORIDA AND KEYS
  
CITY           SKY/WX    TMP DP  RH WIND       PRES   REMARKS
PUNTA GORDA    FAIR      74  74 100 E5        29.98F                  
FT MYERS       FAIR      78  73  84 SE3       29.96F                  
SOUTHWEST INTL FAIR      78  73  84 CALM      29.97F                  
NAPLES         FAIR      80  74  81 CALM      29.97S                  
MARCO ISLAND   MOCLDY   N/A N/A N/A E5        29.99S                  
IMMOKALEE      CLOUDY    77  73  88 SE5       29.98S                  
MARATHON       FAIR      82  75  79 E9        29.97S                  
KEY WEST NAS   FAIR      83  75  77 SE9       29.97S                  
KEY WEST INTL  FAIR      83  76  79 SE10      29.97S                  

STATION/POSITION SKY/WX   TEMP    WIND        PRES    WAVE   SWELL
                          AIR SEA DIR/SP/G            HT/PER HT/PER
                          (F)     (DEG/KT/KT) (MB)    (FT/S) (FT/S)
NAPLES                     80 84   70/  2/  3 1015.2
26.0N   85.6W                 84  170/  6/ 10 1015.2S   4/ 6   3/ 6
DRY TORTUGAS               83     150/ 10/ 11 1015.0S
SAND KEY                   83     140/ 13/ 16 1013.2F
SOMBRERO KEY               83     110/ 13/ 16   N/A
LONG KEY                   82                 1013.8

$$

SKY/WX - Weather  TMP - Temperature  DP - Dew Point  RH - Relative Humidity
WIND - Wind Direction/Speed PRES - Barometric Pressure VSB - Visibility
WCI - Wind Chill Index E13G22 Wind - East Wind 13 mph/Gusts of 22 mph